SCP
0 0 0 0 0 0 0 0 0 0 0 0 1 1 2 2 2 1 1 1 2 3 4 4 4 5 5 5 6 6 7 6 6 5 6 6 5 6 7 6 6 6 7 7
0 0 0 0 0 0 0 0 0 0 0 0 1 1 1 1 1 1 1 1 2 2 3 4 4 4 5 5 5 6 6 6 6 6 6 6 6 6 6 5 5 5 5 5
0 0 0 0 0 0 0 0 0 0 0 0 1 1 1 1 1 1 1 1 1 2 2 4 5 5 4 4 5 5 6 6 6 7 7 7 6 6 5 4 3 3 3 3
0 0 0 0 0 0 0 0 0 0 0 0 0 1 1 1 1 1 1 1 1 2 2 4 6 6 5 4 5 6 6 7 7 8 7 7 7 6 4 4 3 3 3 3
0 0 0 0 0 0 0 0 0 0 0 0 0 1 1 1 1 1 1 1 2 2 2 3 5 7 6 5 6 5 5 6 8 8 7 7 7 6 5 5 4 3 3 2
0 0 0 0 0 0 0 0 0 0 0 0 0 1 1 1 1 1 1 1 1 1 2 2 4 5 5 5 5 5 5 5 6 7 6 6 6 7 7 6 4 3 2 1
0 0 0 0 0 0 0 0 0 0 0 0 0 1 1 1 1 1 1 1 1 1 1 2 2 3 3 4 4 4 4 5 5 5 5 5 6 7 8 7 4 1 0 0
0 0 0 0 0 0 0 0 0 0 0 0 0 1 1 1 1 1 1 1 1 1 1 2 2 2 2 2 3 3 4 4 4 4 4 4 5 6 7 5 2 1 0 0
0 0 0 0 0 0 0 0 0 0 0 0 0 1 1 1 1 1 1 1 1 1 1 1 1 1 2 2 2 2 3 3 4 3 2 2 3 4 5 4 1 0 0 0
0 0 0 0 0 0 0 0 0 0 0 0 0 0 1 1 1 1 1 1 1 1 1 1 1 1 2 2 2 2 2 3 3 2 1 1 1 2 2 2 0 0 0 0
0 0 0 0 0 0 0 0 0 0 0 0 0 0 0 1 1 1 1 1 1 1 1 1 1 1 2 2 2 2 2 2 2 2 1 1 1 1 1 0 0 0 0 0
0 0 0 0 0 0 0 0 0 0 0 0 0 0 1 1 1 1 1 1 1 1 0 0 1 1 1 1 2 2 2 2 2 2 1 1 0 0 0 0 0 0 0 0
0 0 0 0 0 0 0 0 0 0 0 0 0 0 1 1 1 1 1 1 1 0 0 0 0 0 0 0 0 1 1 1 1 1 1 0 0 0 0 0 0 0 0 0
0 0 0 0 0 0 0 0 0 0 0 0 0 0 1 1 1 2 1 1 1 0 0 0 0 0 0 0 0 0 0 0 0 0 0 0 0 0 0 0 0 0 0 0
0 0 0 0 0 0 0 0 0 0 0 0 0 0 1 1 1 1 1 1 0 0 0 0 0 0 0 0 0 0 0 0 0 0 0 0 0 0 0 0 0 0 0 0
0 0 0 0 0 0 0 0 0 0 0 0 0 0 1 1 1 1 1 1 0 0 0 0 0 0 0 0 0 0 0 0 0 0 0 0 0 0 0 0 0 0 0 0
0 0 0 0 0 0 0 0 0 0 0 0 0 0 1 1 1 1 1 1 0 0 0 0 0 0 0 0 0 0 0 0 0 0 0 0 0 0 0 0 0 0 0 0
0 0 0 0 0 0 0 0 0 0 0 0 0 1 1 1 1 1 1 1 0 0 0 0 0 0 0 0 0 0 0 0 0 0 0 0 0 0 0 0 0 0 0 0
0 0 0 0 0 0 0 0 0 0 0 0 0 0 1 1 1 1 1 0 0 0 0 0 0 0 0 0 0 0 0 0 0 0 0 0 0 0 0 0 0 0 0 0
0 0 0 0 0 0 0 0 0 0 0 0 0 0 0 0 1 1 1 0 0 0 0 0 0 0 0 0 0 0 0 0 0 0 0 0 0 0 0 0 0 0 0 0
0 0 0 0 0 0 0 0 0 0 0 0 0 0 0 0 0 0 0 0 0 0 0 0 0 0 0 0 0 0 0 0 0 0 0 0 0 0 0 0 0 0 0 0
0 0 0 0 0 0 0 0 0 0 0 0 0 0 0 0 0 0 0 0 0 0 0 0 0 0 0 0 0 0 0 0 0 0 0 0 0 0 0 0 0 0 0 0
0 0 0 0 0 0 0 0 0 0 0 0 0 0 0 0 0 0 0 0 0 0 0 0 0 0 0 0 0 0 0 0 0 0 0 0 0 0 0 0 0 0 0 0
0 0 0 0 0 0 0 0 0 0 0 0 0 0 0 0 0 0 0 0 0 0 0 0 0 0 0 0 0 0 0 0 0 0 0 0 0 0 0 0 0 0 0 0
0 0 0 0 0 0 0 0 0 0 0 0 0 0 0 0 0 0 0 0 0 0 0 0 0 0 0 0 0 0 0 0 0 0 0 0 0 0 0 0 0 0 0 0
0 0 0 0 0 0 0 0 0 0 0 0 0 0 0 0 0 0 0 0 0 0 0 0 0 0 0 0 0 0 0 0 0 0 0 0 0 0 0 0 0 0 0 0
Wind_Speed
6 9 6 1 2 5 5 7 6 3 1 4 4 3 2 1 1 0 1 2 2 4 5 5 4 4 3 3 2 3 4 4 4 4 4 4 4 4 3 3 4 5 5 4
8 7 1 1 3 6 7 8 6 2 2 4 4 4 3 2 1 1 1 2 2 4 5 5 5 4 3 2 2 2 3 3 3 3 3 3 4 4 4 3 4 5 5 4
7 2 2 5 6 7 7 7 6 4 4 7 6 7 7 5 3 3 2 2 3 4 4 4 5 5 3 3 2 1 2 2 2 3 4 5 4 4 4 3 3 4 5 5
6 3 5 7 6 7 7 4 7 7 9 7 8 7 6 6 5 4 3 3 4 5 5 5 5 6 5 3 2 3 3 3 3 3 4 6 5 5 4 3 3 5 6 6
5 5 7 8 5 6 7 6 8 9 10 10 9 10 4 6 6 4 5 5 5 5 6 6 6 6 5 4 3 3 4 4 4 3 5 5 5 5 5 5 7 6 7 7
8 5 6 7 5 5 6 7 8 10 10 11 8 8 4 4 4 4 5 6 5 6 6 6 7 7 6 6 5 5 5 6 5 5 6 6 8 8 8 8 7 6 6 7
8 8 7 6 8 6 8 9 7 8 9 7 2 6 1 2 2 3 6 7 7 6 6 7 7 8 7 7 6 6 7 7 7 7 7 8 8 8 9 8 7 7 6 7
6 5 4 5 7 7 6 9 9 9 8 5 4 4 3 5 5 6 7 8 7 7 7 8 8 8 7 7 7 6 8 8 9 9 9 9 9 7 7 8 8 8 7 8
5 3 3 3 4 7 7 7 8 10 11 10 5 2 4 5 6 7 8 8 7 8 8 8 8 8 8 8 8 8 9 10 10 10 11 11 10 10 10 9 9 8 8 8
6 7 4 2 6 7 8 7 5 8 8 9 6 6 3 7 7 7 7 7 8 8 8 8 8 8 8 8 9 10 10 11 11 11 10 10 11 11 10 10 11 10 10 10
6 7 5 5 6 6 6 7 7 8 7 9 8 1 6 2 6 8 7 8 9 9 8 8 8 8 8 9 9 10 11 11 12 12 12 13 12 11 11 11 10 9 10 9
4 6 6 4 0 3 6 7 7 8 8 9 9 2 6 4 6 8 9 9 9 9 8 9 9 9 9 10 10 10 10 11 12 12 12 12 12 12 11 12 11 10 10 9
4 5 7 5 6 6 5 6 7 8 8 8 8 1 7 7 8 8 10 10 9 9 9 9 9 9 9 10 10 11 11 12 12 12 12 12 12 12 11 11 10 10 10 9
4 6 8 8 6 5 5 5 6 8 8 8 6 1 6 7 8 9 10 11 10 9 10 10 9 9 9 10 10 10 11 11 12 12 12 12 11 10 10 10 10 9 9 9
5 7 7 7 7 7 7 7 7 8 8 8 4 1 6 8 9 10 10 11 11 10 10 10 9 9 10 10 10 10 10 10 11 11 12 11 10 10 9 10 9 9 8 8
5 7 7 7 6 7 8 7 6 5 5 4 2 1 8 10 10 10 11 11 11 11 11 10 10 10 10 10 10 11 10 10 10 11 11 10 10 9 9 9 8 8 8 7
6 6 7 7 4 7 6 3 4 3 2 3 3 4 12 11 10 10 11 11 12 12 12 11 10 10 10 9 10 10 10 9 9 10 10 9 9 9 8 8 8 8 7 7
6 6 5 5 5 6 3 3 0 1 1 1 4 9 10 10 9 8 9 11 12 13 12 11 10 10 9 9 9 10 9 9 9 9 8 8 8 8 7 7 7 6 6 6
6 6 5 5 6 3 5 4 3 2 1 3 8 11 12 13 11 7 7 10 11 12 11 10 10 10 10 10 9 9 9 9 9 8 8 7 7 7 7 7 6 6 5 6
6 7 7 6 7 4 4 5 2 3 3 7 11 14 14 12 7 7 10 12 12 12 11 11 10 11 10 9 9 9 8 8 8 8 7 7 7 7 7 7 6 5 4 5
7 7 8 7 6 0 6 4 5 5 5 11 12 13 12 6 6 13 14 13 13 13 12 12 11 10 9 9 8 8 8 8 7 7 7 7 6 6 6 6 5 4 4 4
6 5 5 5 5 2 5 4 1 5 8 11 12 12 10 12 16 16 15 14 14 14 13 12 10 10 9 8 8 8 8 7 6 6 6 6 5 4 5 5 4 3 3 4
4 3 2 2 4 6 3 4 4 5 10 11 12 13 14 15 16 16 15 14 14 14 12 10 11 10 9 8 8 9 8 6 5 5 6 6 6 4 4 3 3 3 2 2
4 1 2 3 5 5 5 6 6 8 11 12 13 14 16 17 17 16 15 14 13 13 12 11 11 11 9 9 8 8 7 6 5 5 5 5 4 4 4 2 3 3 3 3
3 5 4 4 7 8 6 7 10 12 13 14 14 14 16 18 17 16 15 14 13 12 11 10 10 10 10 9 8 8 6 5 5 5 4 3 4 4 4 5 5 5 7 7
5 5 4 2 9 7 10 10 13 14 15 15 15 15 16 16 17 16 14 13 13 13 11 10 10 10 10 9 8 7 5 4 3 3 3 3 3 3 3 4 6 6 5 4
Wind_Direction
203 233 230 247 286 309 294 282 275 272 233 266 251 240 216 180 212 114 64 69 89 79 69 55 53 65 85 101 117 145 151 146 157 164 170 162 154 138 127 121 130 133 130 141
215 222 225 242 247 263 265 269 264 232 190 260 253 246 216 196 183 77 57 68 73 78 74 64 57 67 66 78 108 117 133 150 161 160 164 153 132 119 104 101 99 106 116 122
245 91 141 231 233 251 260 275 289 276 248 234 236 233 206 185 174 149 115 88 78 72 69 61 52 49 55 54 53 82 92 121 125 130 135 129 123 122 121 118 101 87 96 97
245 201 227 247 254 272 274 288 279 261 254 244 242 264 204 188 190 173 138 106 85 75 68 58 49 44 42 40 50 68 82 93 102 125 143 147 143 132 126 118 104 91 84 84
218 218 240 259 280 279 301 309 274 264 263 267 240 258 213 184 208 183 136 108 94 78 71 63 52 46 44 46 52 63 77 81 90 109 137 137 124 115 111 108 101 87 76 77
263 246 264 280 284 269 278 266 255 249 249 251 252 261 244 190 212 164 132 119 100 82 76 69 62 57 51 48 55 63 70 72 77 86 98 114 119 120 117 110 104 89 80 75
231 223 215 244 259 227 245 264 256 238 232 244 221 260 309 68 79 145 141 126 106 93 78 68 59 52 48 49 52 61 72 69 71 79 83 92 103 111 109 109 104 97 87 80
266 236 187 218 261 283 259 269 278 288 288 285 227 248 83 77 84 104 117 117 108 92 77 67 59 53 49 49 54 64 74 75 74 78 80 84 88 90 89 90 93 89 86 82
278 286 138 224 257 271 264 257 291 285 278 277 253 196 139 127 126 123 123 120 109 94 84 76 67 59 54 53 54 64 76 78 79 81 84 84 84 85 90 90 88 88 88 86
273 279 254 212 234 224 275 295 270 266 280 280 263 243 204 170 166 149 139 126 112 101 91 81 72 68 62 62 67 71 76 79 80 83 86 87 85 86 88 87 85 85 84 83
251 263 243 222 246 269 224 234 254 274 282 285 285 7 44 141 164 152 139 124 112 102 96 89 82 77 74 74 76 78 81 83 84 85 87 87 86 85 84 84 81 82 82 81
224 267 277 266 25 298 272 272 262 265 270 272 288 23 55 86 133 139 132 119 111 107 101 95 89 85 81 78 78 79 82 86 89 91 91 91 91 88 86 84 81 80 79 78
186 244 267 229 182 195 233 251 261 267 273 272 276 97 90 103 111 118 126 124 117 113 108 101 95 90 87 85 84 84 85 88 92 93 93 91 90 89 89 88 87 85 83 80
232 253 275 299 323 316 273 260 258 263 267 276 282 161 132 127 125 122 127 126 123 120 114 107 101 98 95 92 89 89 89 92 95 94 93 92 91 92 92 92 90 87 84 82
236 256 265 277 283 277 276 278 269 264 281 292 309 359 136 142 141 136 133 131 128 125 119 115 113 108 105 102 98 94 93 94 96 98 97 96 95 95 93 90 88 86 84 84
231 267 268 263 257 257 264 265 262 265 276 273 251 87 118 129 130 135 140 140 135 130 124 122 117 114 110 108 106 104 101 101 103 104 104 104 103 99 95 94 92 89 86 86
221 245 261 270 256 251 249 263 256 241 257 266 273 124 134 137 141 146 146 143 139 135 131 126 122 119 116 113 112 111 110 109 106 104 105 107 106 103 101 100 100 99 98 93
240 244 260 272 259 258 76 74 21 144 79 16 96 124 136 133 128 133 142 141 138 135 131 128 125 121 118 118 117 117 116 113 110 108 108 107 108 105 104 103 101 101 100 99
234 243 260 268 269 266 142 156 186 212 131 126 132 130 126 125 116 111 128 134 133 133 131 128 127 126 126 125 126 124 122 119 114 109 106 104 103 101 102 98 97 98 102 103
202 233 253 263 279 290 98 121 157 231 163 141 145 144 146 157 155 138 136 130 128 129 130 131 133 134 131 131 134 130 125 118 109 103 99 97 95 94 94 93 95 99 107 109
199 216 242 262 266 330 91 132 192 251 96 142 152 154 161 172 111 127 134 132 131 134 136 138 139 136 134 136 134 125 117 108 103 100 99 96 95 95 94 95 96 104 105 101
234 235 236 256 260 103 106 171 231 59 114 141 147 149 139 113 115 127 133 134 137 138 139 138 135 132 134 135 133 124 114 110 108 107 105 104 100 93 95 96 97 97 112 130
247 311 321 348 44 79 87 70 73 114 131 135 139 139 131 129 131 134 135 137 139 138 137 137 135 132 133 134 132 126 123 124 119 109 104 102 99 85 82 93 105 122 132 112
162 187 209 158 119 114 108 106 113 124 128 133 136 137 137 135 137 137 136 137 139 137 140 142 140 137 134 133 129 125 126 127 122 115 115 116 108 104 94 73 76 72 69 79
152 180 193 157 129 134 126 123 122 120 123 127 131 135 138 139 141 139 138 139 139 139 141 144 141 137 135 134 130 133 133 135 126 123 127 122 110 96 98 79 49 42 55 34
182 193 219 171 160 155 138 136 133 130 131 132 132 133 137 139 139 138 136 138 140 141 143 144 141 138 138 140 137 134 134 133 128 129 134 133 122 114 115 122 119 68 58 78